Sheppard AFB, TX

8:00 AM CST on January 16, 2017 (GMT -0600)
Sheppard Air Force Base-Wichita Falls Municipal

Weather History for KSPS - April, 2014

Change the Weather History Date:

Tuesday, April 29, 2014

  Actual Average Record
Temperature  
Mean Temperature 61 °F 67 °F  
Max Temperature 70 °F 79 °F 98 °F (1936)
Min Temperature 52 °F 54 °F 40 °F (1982)
Degree Days  
Heating Degree Days 4 2  
Month to date heating degree days 115 141  
Since 1 July heating degree days 3333 2944  
Cooling Degree Days 0 4  
Month to date cooling degree days 90 66  
Year to date cooling degree days 106 88  
Growing Degree Days 11 (Base 50)    
Moisture  
Dew Point 33 °F    
Average Humidity 37    
Maximum Humidity 51    
Minimum Humidity 22    
Precipitation  
Precipitation 0.00 in 0.12 in 5.20 in (2009)
Month to date precipitation 1.49 2.49  
Year to date precipitation 4.02 7.58  
Snow  
Snow 0.00 in - - ()
Month to date snowfall 0.0  
Snow Depth 0.00 in    
Sea Level Pressure  
Sea Level Pressure 29.85 in    
Wind  
Wind Speed 18 mph (NW)    
Max Wind Speed 36 mph    
Max Gust Speed 47 mph    
Visibility 10 miles    
Events      
T = Trace of Precipitation, MM = Missing Value Source: NWS Daily Summary

Daily Weather History Graph

Daily Weather History Graph

Search for Another Location

Airport or City:

Trip Planner

Search our weather history database for the weather conditions in past years. The results will help you decide how hot, cold, wet, or windy it might be!

Date:

Astronomy

Apr. 29, 2014 Rise Set
Actual Time 6:46 AM CDT 8:16 PM CDT
Civil Twilight 6:20 AM CDT 8:42 PM CDT
Nautical Twilight 5:48 AM CDT 9:14 PM CDT
Astronomical Twilight 5:15 AM CDT 9:48 PM CDT
Moon 7:05 AM CDT (4/29) 8:56 PM CDT (4/29)
Length of Visible Light 14h 22m
Length of Day
13h 29m
New Moon, 0% of the Moon is Illuminated
Apr 29
New Moon
May 6
First Quarter
May 14
Full
May 21
Last Quarter
May 28
New

Hourly Weather History & Observations

Time (CDT) Temp. Dew Point Humidity Pressure Visibility Wind Dir Wind Speed Gust Speed Precip Events Conditions
12:52 AM 60.1 °F 39.9 °F 47% 29.69 in 10.0 mi Calm Calm - N/A   Scattered Clouds
1:52 AM 59.0 °F 41.0 °F 51% 29.72 in 10.0 mi NNW 6.9 mph - N/A   Mostly Cloudy
2:52 AM 59.0 °F 39.9 °F 49% 29.74 in 10.0 mi NW 4.6 mph - N/A   Overcast
3:52 AM 59.0 °F 36.0 °F 42% 29.76 in 10.0 mi North 16.1 mph - N/A   Partly Cloudy
4:52 AM 57.0 °F 36.0 °F 45% 29.77 in 10.0 mi North 6.9 mph - N/A   Mostly Cloudy
5:52 AM 54.0 °F 36.0 °F 51% 29.79 in 10.0 mi NNW 5.8 mph - N/A   Scattered Clouds
6:52 AM 54.0 °F 33.1 °F 45% 29.81 in 10.0 mi NNW 10.4 mph - N/A   Scattered Clouds
7:52 AM 55.4 °F 33.8 °F 44% 29.86 in 10.0 mi NW 11.5 mph - N/A   Scattered Clouds
8:52 AM 62.1 °F 30.0 °F 30% 29.86 in 10.0 mi NW 23.0 mph 28.8 mph N/A   Partly Cloudy
9:52 AM 64.4 °F 28.4 °F 26% 29.87 in 10.0 mi NW 28.8 mph 40.3 mph N/A   Partly Cloudy
10:52 AM 66.0 °F 28.0 °F 24% 29.85 in 10.0 mi WNW 25.3 mph 35.7 mph N/A   Partly Cloudy
11:52 AM 68.0 °F 28.9 °F 23% 29.86 in 10.0 mi WNW 28.8 mph 34.5 mph N/A   Scattered Clouds
12:52 PM 68.0 °F 30.0 °F 24% 29.86 in 10.0 mi NNW 27.6 mph 40.3 mph N/A   Scattered Clouds
1:52 PM 68.0 °F 32.0 °F 26% 29.86 in 10.0 mi NW 29.9 mph 40.3 mph N/A   Mostly Cloudy
2:52 PM 66.9 °F 32.0 °F 27% 29.88 in 10.0 mi NW 25.3 mph 40.3 mph N/A   Scattered Clouds
3:52 PM 64.9 °F 32.0 °F 29% 29.88 in 10.0 mi NW 25.3 mph 42.6 mph N/A   Partly Cloudy
4:52 PM 62.6 °F 32.0 °F 32% 29.91 in 10.0 mi NW 20.7 mph 31.1 mph N/A   Overcast
5:52 PM 64.9 °F 32.0 °F 29% 29.89 in 10.0 mi NNW 19.6 mph 31.1 mph N/A   Overcast
6:52 PM 63.0 °F 30.0 °F 29% 29.89 in 10.0 mi NNW 17.3 mph 29.9 mph N/A   Mostly Cloudy
7:52 PM 62.1 °F 28.9 °F 29% 29.91 in 10.0 mi NNW 23.0 mph 29.9 mph N/A   Overcast
8:52 PM 57.9 °F 30.0 °F 35% 29.94 in 10.0 mi NNW 12.7 mph - N/A   Partly Cloudy
9:52 PM 57.2 °F 30.2 °F 36% 29.99 in 10.0 mi NW 10.4 mph - N/A   Clear
10:52 PM 55.0 °F 30.0 °F 38% 29.99 in 10.0 mi NW 12.7 mph - N/A   Clear
11:52 PM 54.0 °F 28.0 °F 37% 29.99 in 10.0 mi NNW 16.1 mph - N/A   Clear